Peru, IL

5:57 AM CDT on August 23, 2017 (GMT -0500)
Illinois Valley Regional-Duncan

Weather History for KVYS - December, 2010

Change the Weather History Date:

Monday, December 20, 2010

  Actual Average Record
Temperature  
Mean Temperature 14 °F -  
Max Temperature 27 °F 34 °F 56 °F (1988)
Min Temperature 2 °F 18 °F -18 °F (1983)
Degree Days  
Heating Degree Days 50    
Moisture  
Dew Point 14 °F    
Average Humidity 85    
Maximum Humidity 92    
Minimum Humidity 75    
Precipitation  
Precipitation 0.04 in - - ()
Sea Level Pressure  
Sea Level Pressure 30.09 in    
Wind  
Wind Speed 5 mph (ESE)    
Max Wind Speed 20 mph    
Max Gust Speed 25 mph    
Visibility 5 miles    
Events Snow    
Averages and records for this station are not official NWS values.
T = Trace of Precipitation, MM = Missing Value Source: NWS Daily Summary

Daily Weather History Graph

Daily Weather History Graph

Search for Another Location

Airport or City:

Trip Planner

Search our weather history database for the weather conditions in past years. The results will help you decide how hot, cold, wet, or windy it might be!

Date:

Astronomy

Dec. 20, 2010 Rise Set
Actual Time 7:18 AM CST 4:29 PM CST
Civil Twilight 6:47 AM CST 5:01 PM CST
Nautical Twilight 6:12 AM CST 5:36 PM CST
Astronomical Twilight 5:38 AM CST 6:09 PM CST
Moon 3:58 PM CST (12/20) 6:41 AM CST (12/20)
Length of Visible Light 10h 14m
Length of Day
9h 11m
Full, 100% of the Moon is Illuminated
Dec 20
Full
Dec 21
Full
Dec 27
Last Quarter
Jan 4
New
Jan 12
First Quarter

Hourly Weather History & Observations

Time (CST) Temp. Windchill Dew Point Humidity Pressure Visibility Wind Dir Wind Speed Gust Speed Precip Events Conditions
12:05 AM 2.5 °F - -1.8 °F 82% 30.12 in 7.0 mi Calm Calm - N/A   Clear
12:25 AM 4.1 °F - 0.5 °F 85% 30.13 in 7.0 mi Calm Calm - N/A   Clear
12:45 AM 3.7 °F - 0.1 °F 85% 30.12 in 7.0 mi Calm Calm - N/A   Clear
1:05 AM 3.9 °F - -0.0 °F 84% 30.12 in 7.0 mi Calm Calm - N/A   Clear
1:25 AM 5.0 °F - 1.2 °F 84% 30.12 in 7.0 mi Calm Calm - N/A   Clear
1:45 AM 5.5 °F - 1.6 °F 84% 30.13 in 7.0 mi Calm Calm - N/A   Clear
2:05 AM 6.1 °F - 2.3 °F 84% 30.13 in 7.0 mi Calm Calm - N/A   Scattered Clouds
2:25 AM 7.7 °F 1.0 °F 4.3 °F 86% 30.13 in 7.0 mi East 3.5 mph - N/A   Mostly Cloudy
2:45 AM 8.4 °F 1.8 °F 5.2 °F 87% 30.12 in 7.0 mi ESE 3.5 mph - N/A   Scattered Clouds
3:06 AM 8.4 °F - 5.2 °F 87% 30.13 in 7.0 mi Calm Calm - N/A   Scattered Clouds
3:25 AM 8.6 °F - 5.0 °F 85% 30.13 in 7.0 mi Calm Calm - N/A   Overcast
3:46 AM 10.0 °F - 6.8 °F 87% 30.13 in 7.0 mi Calm Calm - N/A   Overcast
4:05 AM 10.2 °F 2.0 °F 6.8 °F 86% 30.13 in 7.0 mi ENE 4.6 mph - N/A   Overcast
4:25 AM 10.4 °F 0.8 °F 6.8 °F 85% 30.11 in 7.0 mi East 5.8 mph - N/A   Overcast
4:45 AM 10.9 °F 0.2 °F 7.3 °F 85% 30.11 in 7.0 mi East 6.9 mph - N/A   Overcast
5:05 AM 11.7 °F 1.1 °F 7.9 °F 85% 30.10 in 7.0 mi East 6.9 mph - N/A   Overcast
5:25 AM 12.2 °F 2.9 °F 8.2 °F 84% 30.11 in 7.0 mi East 5.8 mph - N/A   Scattered Clouds
5:45 AM 12.2 °F 2.9 °F 8.2 °F 84% 30.10 in 7.0 mi ENE 5.8 mph - N/A   Mostly Cloudy
6:05 AM 12.6 °F 6.5 °F 8.6 °F 84% 30.11 in 7.0 mi East 3.5 mph - N/A   Mostly Cloudy
6:25 AM 12.6 °F 6.5 °F 8.6 °F 84% 30.12 in 7.0 mi East 3.5 mph - N/A   Mostly Cloudy
6:45 AM 14.0 °F 6.5 °F 8.6 °F 79% 30.12 in 7.0 mi ESE 4.6 mph - N/A   Mostly Cloudy
7:05 AM 13.8 °F 8.0 °F 10.2 °F 86% 30.13 in 7.0 mi SE 3.5 mph - N/A   Mostly Cloudy
7:25 AM 14.9 °F 7.5 °F 10.9 °F 84% 30.12 in 5.0 mi East 4.6 mph - N/A   Overcast
7:45 AM 15.3 °F 5.4 °F 11.3 °F 84% 30.12 in 7.0 mi East 6.9 mph - N/A   Overcast
8:05 AM 16.2 °F 6.5 °F 11.8 °F 83% 30.12 in 7.0 mi East 6.9 mph - N/A   Overcast
8:25 AM 17.2 °F 6.8 °F 12.9 °F 83% 30.12 in 7.0 mi East 8.1 mph - N/A   Overcast
8:45 AM 18.3 °F 9.1 °F 13.3 °F 81% 30.12 in 10.0 mi East 6.9 mph - N/A   Overcast
9:05 AM 19.9 °F 10.1 °F 14.0 °F 78% 30.12 in 10.0 mi ESE 8.1 mph - N/A   Overcast
9:25 AM 19.9 °F 9.3 °F 13.5 °F 76% 30.11 in 10.0 mi ESE 9.2 mph - N/A   Overcast
9:45 AM 20.3 °F 10.6 °F 13.8 °F 76% 30.12 in 10.0 mi ESE 8.1 mph - N/A   Overcast
10:05 AM 21.2 °F 12.6 °F 14.4 °F 75% 30.13 in 10.0 mi ESE 6.9 mph - N/A   Overcast
10:25 AM 22.3 °F 13.9 °F 15.6 °F 76% 30.13 in 10.0 mi ESE 6.9 mph - N/A   Overcast
10:45 AM 23.0 °F 13.9 °F 16.7 °F 77% 30.11 in 3.0 mi East 8.1 mph - N/A Snow Light Snow
11:05 AM 23.9 °F 13.5 °F 18.9 °F 81% 30.10 in 2.0 mi ESE 10.4 mph - N/A Snow Light Snow
11:25 AM 24.8 °F 14.6 °F 20.8 °F 85% 30.09 in 1.5 mi ESE 10.4 mph - N/A Snow Light Snow
11:45 AM 25.2 °F 15.1 °F 21.2 °F 85% 30.09 in 1.8 mi ESE 10.4 mph - N/A Snow Light Snow
12:05 PM 25.2 °F 15.1 °F 21.6 °F 86% 30.08 in 1.0 mi ESE 10.4 mph - N/A Snow Light Snow
12:25 PM 25.2 °F 13.3 °F 21.7 °F 87% 30.06 in 1.2 mi ESE 13.8 mph - N/A Snow Light Snow
12:45 PM 25.5 °F 13.8 °F 22.1 °F 87% 30.05 in 1.5 mi ESE 13.8 mph - N/A Snow Light Snow
1:05 PM 25.7 °F 15.1 °F 22.6 °F 88% 30.05 in 1.0 mi ESE 11.5 mph - N/A Snow Light Snow
1:26 PM 26.2 °F 14.2 °F 23.0 °F 88% 30.04 in 0.8 mi ESE 15.0 mph - N/A Snow Light Snow
1:45 PM 26.6 °F 15.2 °F 23.0 °F 86% 30.03 in 1.0 mi ESE 13.8 mph 19.6 mph N/A Snow Light Snow
2:06 PM 25.7 °F 14.6 °F 22.6 °F 88% 30.03 in 0.8 mi ESE 12.7 mph - 0.01 in Snow Light Snow
2:25 PM 25.5 °F 13.8 °F 22.6 °F 89% 30.02 in 0.5 mi ESE 13.8 mph - 0.01 in Snow Light Snow
2:46 PM 25.5 °F 13.3 °F 23.0 °F 90% 30.02 in 0.5 mi ESE 15.0 mph - 0.01 in Snow Snow
3:05 PM 25.5 °F 13.8 °F 23.0 °F 90% 30.02 in 0.5 mi ESE 13.8 mph - N/A Snow Snow
3:25 PM 26.6 °F 15.2 °F 23.0 °F 86% 30.01 in 0.5 mi East 13.8 mph 19.6 mph N/A Snow Light Snow
3:45 PM 26.4 °F 15.0 °F 23.9 °F 90% 30.02 in 0.8 mi East 13.8 mph 17.3 mph 0.01 in Snow Light Snow
4:05 PM 26.6 °F 15.7 °F 24.3 °F 91% 30.01 in 0.5 mi East 12.7 mph - N/A Snow Snow
4:25 PM 27.0 °F 16.7 °F 24.8 °F 92% 30.02 in 0.8 mi ESE 11.5 mph 18.4 mph N/A Snow Light Snow
4:45 PM 27.3 °F 16.6 °F 24.8 °F 90% 30.01 in 1.0 mi ESE 12.7 mph 18.4 mph 0.01 in Snow Light Snow
5:05 PM 27.3 °F 16.6 °F 25.0 °F 91% 30.01 in 1.2 mi East 12.7 mph 21.9 mph N/A Snow Light Snow
5:25 PM 27.3 °F 16.6 °F 24.8 °F 90% 30.01 in 1.2 mi East 12.7 mph - N/A Snow Light Snow
5:45 PM 27.5 °F 15.9 °F 25.2 °F 91% 30.01 in 2.0 mi ESE 15.0 mph 20.7 mph 0.01 in Snow Light Snow
6:05 PM 27.1 °F 14.5 °F 24.6 °F 90% 30.01 in 3.0 mi ESE 17.3 mph 25.3 mph N/A Snow Light Snow
6:25 PM 27.1 °F 13.8 °F 24.4 °F 90% 30.01 in 4.0 mi ESE 19.6 mph 24.2 mph N/A   Light Freezing Rain
6:45 PM 27.5 °F 15.4 °F 24.8 °F 90% 30.02 in 4.0 mi ESE 16.1 mph 24.2 mph 0.02 in   Overcast
7:05 PM 28.0 °F 15.7 °F 25.3 °F 90% 30.02 in 4.0 mi East 17.3 mph 25.3 mph N/A   Overcast
7:25 PM 28.0 °F 15.7 °F 25.5 °F 90% 30.01 in 3.0 mi East 17.3 mph 21.9 mph N/A   Overcast
7:45 PM 28.2 °F 15.9 °F 25.7 °F 90% 30.00 in 2.5 mi ESE 17.3 mph 25.3 mph 0.01 in   Light Freezing Rain
8:05 PM 28.4 °F 17.0 °F 26.2 °F 92% 30.03 in 3.0 mi ESE 15.0 mph 18.4 mph N/A   Light Freezing Rain
8:26 PM 28.9 °F 18.2 °F 26.6 °F 91% 30.04 in 2.0 mi East 13.8 mph 18.4 mph 0.01 in   Light Freezing Rain
8:45 PM 29.3 °F 18.2 °F 27.1 °F 92% 30.04 in 2.0 mi ESE 15.0 mph - 0.02 in   Light Freezing Rain
9:06 PM 28.9 °F 17.3 °F 26.8 °F 92% 30.03 in 2.0 mi ESE 16.1 mph 21.9 mph 0.01 in Rain Light Freezing Rain
9:25 PM 28.4 °F 16.2 °F 26.2 °F 92% 30.02 in 3.0 mi ESE 17.3 mph 20.7 mph 0.01 in   Overcast
9:45 PM 28.4 °F 16.2 °F 26.2 °F 92% 30.02 in 4.0 mi ESE 17.3 mph 20.7 mph 0.01 in   Overcast
10:05 PM 28.4 °F 17.0 °F 26.2 °F 92% 30.02 in 4.0 mi ESE 15.0 mph - N/A   Overcast
10:25 PM 28.4 °F 17.0 °F 26.2 °F 92% 30.02 in 4.0 mi ESE 15.0 mph - 0.01 in   Overcast
10:45 PM 28.2 °F 17.7 °F 26.1 °F 92% 30.00 in 4.0 mi ESE 12.7 mph - 0.01 in   Overcast
11:05 PM 28.4 °F 16.6 °F 26.2 °F 92% 29.99 in 3.0 mi ESE 16.1 mph - N/A   Overcast
11:25 PM 28.8 °F 17.0 °F 26.6 °F 92% 29.96 in 3.0 mi ESE 16.1 mph 19.6 mph 0.01 in   Overcast
11:45 PM 29.1 °F 18.9 °F 27.1 °F 92% 29.97 in 3.0 mi ESE 12.7 mph - 0.01 in   Overcast